Location: West Sayville
(40.7279°N, 73.0976°W)
Time: 09:56:55
(UTC+00:00)

Cosmos 968 Rocket - Pass Details

Date: 29 October 2020
Orbit: 741 x 770 km, 74.0° (Epoch: 23 November)

Event Time Altitude Azimuth Distance (km) Brightness Sun altitude
Rises 23:18:22 0° 338° (NNW) 3,232 7.0 -16.9°
Reaches altitude 10° 23:20:45 10° 337° (NNW) 2,298 6.2 -17.4°
Maximum altitude 23:25:57 74° 254° (WSW) 786 3.6 -18.4°
Drops below altitude 10° 23:31:04 10° 169° (S) 2,262 5.8 -19.3°
Sets 23:33:24 0° 168° (SSE) 3,178 6.6 -19.8°
